Time,TemperatureF,DewpointF,PressureIn,WindDirection,WindDirectionDegrees,WindSpeedMPH,WindSpeedGustMPH,Humidity,HourlyPrecipIn,Conditions,Clouds,dailyrainin,SolarRadiationWatts/m^2,SoftwareType,DateUTC
2013-07-17 00:01:00,75.7,67.2,30.12,West,264,0.0,2.0,75,0.00,,,0.00,0002,Weather View 32 v70,2013-07-17 04:01:00,
2013-07-17 00:06:00,75.6,67.5,30.12,West,264,0.0,2.0,76,0.00,,,0.00,0002,Weather View 32 v70,2013-07-17 04:06:00,
2013-07-17 00:11:00,75.6,67.5,30.12,West,264,1.0,2.0,76,0.00,,,0.00,0002,Weather View 32 v70,2013-07-17 04:11:00,
2013-07-17 00:16:00,75.5,67.4,30.12,West,263,2.0,2.0,76,0.00,,,0.00,0002,Weather View 32 v70,2013-07-17 04:16:00,
2013-07-17 00:21:00,75.4,67.3,30.12,WSW,257,0.0,2.0,76,0.00,,,0.00,0002,Weather View 32 v70,2013-07-17 04:21:00,
2013-07-17 00:26:00,75.4,67.7,30.11,WSW,257,1.0,2.0,77,0.00,,,0.00,0002,Weather View 32 v70,2013-07-17 04:26:00,
2013-07-17 00:31:00,75.4,67.7,30.12,WSW,257,0.0,2.0,77,0.00,,,0.00,0002,Weather View 32 v70,2013-07-17 04:31:00,
2013-07-17 00:36:00,75.3,67.6,30.11,WSW,258,0.0,2.0,77,0.00,,,0.00,0002,Weather View 32 v70,2013-07-17 04:36:00,
2013-07-17 00:41:00,75.3,67.6,30.11,WSW,258,0.0,2.0,77,0.00,,,0.00,0002,Weather View 32 v70,2013-07-17 04:41:00,
2013-07-17 00:46:00,75.2,67.5,30.11,WSW,258,0.0,2.0,77,0.00,,,0.00,0002,Weather View 32 v70,2013-07-17 04:46:00,
2013-07-17 00:52:00,75.2,67.5,30.11,WSW,258,0.0,2.0,77,0.00,,,0.00,0002,Weather View 32 v70,2013-07-17 04:52:00,
2013-07-17 00:55:00,75.2,67.5,30.11,WSW,258,0.0,2.0,77,0.00,,,0.00,0002,Weather View 32 v70,2013-07-17 04:55:00,
2013-07-17 01:00:00,75.1,67.4,30.11,WSW,257,1.0,2.0,77,0.00,,,0.00,0002,Weather View 32 v70,2013-07-17 05:00:00,
2013-07-17 01:05:00,75.0,67.3,30.11,WSW,258,1.0,2.0,77,0.00,,,0.00,0002,Weather View 32 v70,2013-07-17 05:05:00,
2013-07-17 01:10:00,75.0,67.3,30.11,WSW,255,1.0,2.0,77,0.00,,,0.00,0002,Weather View 32 v70,2013-07-17 05:10:00,
2013-07-17 01:15:00,74.9,67.2,30.11,SW,228,0.0,2.0,77,0.00,,,0.00,0002,Weather View 32 v70,2013-07-17 05:15:00,
2013-07-17 01:20:00,74.9,67.5,30.11,SW,228,0.0,2.0,78,0.00,,,0.00,0002,Weather View 32 v70,2013-07-17 05:20:00,
2013-07-17 01:25:00,74.9,67.2,30.11,SW,231,1.0,2.0,77,0.00,,,0.00,0002,Weather View 32 v70,2013-07-17 05:25:00,
2013-07-17 01:30:00,74.8,67.5,30.11,SW,235,1.0,2.0,78,0.00,,,0.00,0002,Weather View 32 v70,2013-07-17 05:30:00,
2013-07-17 01:35:00,74.8,67.5,30.11,NW,319,1.0,2.0,78,0.00,,,0.00,0002,Weather View 32 v70,2013-07-17 05:35:00,
2013-07-17 01:40:00,74.7,67.4,30.11,NNW,333,1.0,2.0,78,0.00,,,0.00,0002,Weather View 32 v70,2013-07-17 05:40:00,
2013-07-17 01:45:00,74.6,67.3,30.10,North,4,1.0,2.0,78,0.00,,,0.00,0002,Weather View 32 v70,2013-07-17 05:45:00,
2013-07-17 01:50:00,74.5,67.2,30.10,North,353,1.0,2.0,78,0.00,,,0.00,0002,Weather View 32 v70,2013-07-17 05:50:00,
2013-07-17 01:55:00,74.3,67.3,30.10,NNW,342,1.0,2.0,79,0.00,,,0.00,0002,Weather View 32 v70,2013-07-17 05:55:00,
2013-07-17 02:00:00,74.3,67.3,30.10,North,3,1.0,2.0,79,0.00,,,0.00,0002,Weather View 32 v70,2013-07-17 06:00:00,
2013-07-17 02:05:00,74.1,67.1,30.10,NNE,22,1.0,2.0,79,0.00,,,0.00,0002,Weather View 32 v70,2013-07-17 06:05:00,
2013-07-17 02:10:00,74.0,67.4,30.10,North,349,1.0,2.0,80,0.00,,,0.00,0002,Weather View 32 v70,2013-07-17 06:10:00,
2013-07-17 02:15:00,73.8,67.2,30.10,North,356,1.0,2.0,80,0.00,,,0.00,0002,Weather View 32 v70,2013-07-17 06:15:00,
2013-07-17 02:20:00,73.7,67.1,30.10,North,353,1.0,2.0,80,0.00,,,0.00,0002,Weather View 32 v70,2013-07-17 06:20:00,
2013-07-17 02:25:00,73.6,67.4,30.10,NNW,343,1.0,2.0,81,0.00,,,0.00,0002,Weather View 32 v70,2013-07-17 06:25:00,
2013-07-17 02:30:00,73.6,67.4,30.10,NNW,342,0.0,2.0,81,0.00,,,0.00,0002,Weather View 32 v70,2013-07-17 06:30:00,
2013-07-17 02:35:00,73.5,67.3,30.10,NNW,342,0.0,2.0,81,0.00,,,0.00,0002,Weather View 32 v70,2013-07-17 06:35:00,
2013-07-17 02:40:00,73.5,67.3,30.10,NNW,342,0.0,2.0,81,0.00,,,0.00,0002,Weather View 32 v70,2013-07-17 06:40:00,
2013-07-17 02:45:00,73.4,67.2,30.10,NNW,342,1.0,2.0,81,0.00,,,0.00,0002,Weather View 32 v70,2013-07-17 06:45:00,
2013-07-17 02:50:00,73.4,67.2,30.10,NNW,342,0.0,2.0,81,0.00,,,0.00,0002,Weather View 32 v70,2013-07-17 06:50:00,
2013-07-17 02:55:00,73.4,67.2,30.10,NNW,342,0.0,2.0,81,0.00,,,0.00,0002,Weather View 32 v70,2013-07-17 06:55:00,
2013-07-17 03:00:00,73.3,67.1,30.10,NNW,345,1.0,2.0,81,0.00,,,0.00,0002,Weather View 32 v70,2013-07-17 07:00:00,
2013-07-17 03:05:00,73.3,67.4,30.10,NNW,345,1.0,2.0,82,0.00,,,0.00,0002,Weather View 32 v70,2013-07-17 07:05:00,
2013-07-17 03:10:00,73.3,67.4,30.10,NNW,345,0.0,2.0,82,0.00,,,0.00,0002,Weather View 32 v70,2013-07-17 07:10:00,
2013-07-17 03:15:00,73.3,67.4,30.10,NNW,345,0.0,2.0,82,0.00,,,0.00,0002,Weather View 32 v70,2013-07-17 07:15:00,
2013-07-17 03:20:00,73.3,67.4,30.10,NNW,344,0.0,2.0,82,0.00,,,0.00,0002,Weather View 32 v70,2013-07-17 07:20:00,
2013-07-17 03:25:00,73.3,67.4,30.10,NNW,344,0.0,2.0,82,0.00,,,0.00,0002,Weather View 32 v70,2013-07-17 07:25:00,
2013-07-17 03:30:00,73.4,67.5,30.10,NNW,344,0.0,2.0,82,0.00,,,0.00,0002,Weather View 32 v70,2013-07-17 07:30:00,
2013-07-17 03:35:00,73.3,67.4,30.10,NNW,344,0.0,2.0,82,0.00,,,0.00,0002,Weather View 32 v70,2013-07-17 07:35:00,
2013-07-17 03:40:00,73.3,67.4,30.10,NNW,344,0.0,2.0,82,0.00,,,0.00,0002,Weather View 32 v70,2013-07-17 07:40:00,
2013-07-17 03:45:00,73.3,67.8,30.10,NNW,344,0.0,2.0,83,0.00,,,0.00,0002,Weather View 32 v70,2013-07-17 07:45:00,
2013-07-17 03:50:00,73.4,67.9,30.10,NNW,344,1.0,2.0,83,0.00,,,0.00,0002,Weather View 32 v70,2013-07-17 07:50:00,
2013-07-17 03:55:00,73.3,67.8,30.10,NNW,344,0.0,2.0,83,0.00,,,0.00,0002,Weather View 32 v70,2013-07-17 07:55:00,
2013-07-17 04:00:00,73.3,67.8,30.10,NNW,344,0.0,2.0,83,0.00,,,0.00,0002,Weather View 32 v70,2013-07-17 08:00:00,
2013-07-17 04:05:00,73.4,67.9,30.10,NNW,344,0.0,1.0,83,0.00,,,0.00,0002,Weather View 32 v70,2013-07-17 08:05:00,
2013-07-17 04:10:00,73.4,67.9,30.10,NNW,344,0.0,1.0,83,0.00,,,0.00,0002,Weather View 32 v70,2013-07-17 08:10:00,
2013-07-17 04:15:00,73.4,67.9,30.10,NNW,344,0.0,1.0,83,0.00,,,0.00,0002,Weather View 32 v70,2013-07-17 08:15:00,
2013-07-17 04:20:00,73.4,67.9,30.10,NNW,344,0.0,1.0,83,0.00,,,0.00,0002,Weather View 32 v70,2013-07-17 08:20:00,
2013-07-17 04:25:00,73.4,67.9,30.10,NNW,344,0.0,1.0,83,0.00,,,0.00,0002,Weather View 32 v70,2013-07-17 08:25:00,
2013-07-17 04:30:00,73.4,67.9,30.11,NNW,344,0.0,1.0,83,0.00,,,0.00,0002,Weather View 32 v70,2013-07-17 08:30:00,
2013-07-17 04:35:00,73.4,68.2,30.11,NNW,344,0.0,1.0,84,0.00,,,0.00,0002,Weather View 32 v70,2013-07-17 08:35:00,
2013-07-17 04:40:00,73.4,68.2,30.11,NNW,344,0.0,1.0,84,0.00,,,0.00,0002,Weather View 32 v70,2013-07-17 08:40:00,
2013-07-17 04:45:00,73.3,68.2,30.11,NNW,344,0.0,1.0,84,0.00,,,0.00,0002,Weather View 32 v70,2013-07-17 08:45:00,
2013-07-17 04:50:00,73.3,68.2,30.11,NNW,344,0.0,1.0,84,0.00,,,0.00,0002,Weather View 32 v70,2013-07-17 08:50:00,
2013-07-17 04:55:00,73.2,68.1,30.11,NNW,344,0.0,1.0,84,0.00,,,0.00,0002,Weather View 32 v70,2013-07-17 08:55:00,
2013-07-17 05:00:00,73.2,68.1,30.11,NNW,344,0.0,1.0,84,0.00,,,0.00,0002,Weather View 32 v70,2013-07-17 09:00:00,
2013-07-17 05:05:00,73.1,68.0,30.11,NNW,344,0.0,1.0,84,0.00,,,0.00,0002,Weather View 32 v70,2013-07-17 09:05:00,
2013-07-17 05:10:00,73.1,68.3,30.11,NNW,344,1.0,1.0,85,0.00,,,0.00,0003,Weather View 32 v70,2013-07-17 09:10:00,
2013-07-17 05:15:00,73.0,68.2,30.11,NNW,344,1.0,2.0,85,0.00,,,0.00,0003,Weather View 32 v70,2013-07-17 09:15:00,
2013-07-17 05:20:00,73.0,68.2,30.12,North,350,1.0,2.0,85,0.00,,,0.00,0004,Weather View 32 v70,2013-07-17 09:20:00,
2013-07-17 05:25:00,72.9,68.1,30.12,North,350,1.0,2.0,85,0.00,,,0.00,0005,Weather View 32 v70,2013-07-17 09:25:00,
2013-07-17 05:30:00,72.8,68.0,30.12,North,350,0.0,2.0,85,0.00,,,0.00,0007,Weather View 32 v70,2013-07-17 09:30:00,
2013-07-17 05:35:00,72.8,68.3,30.12,North,350,0.0,2.0,86,0.00,,,0.00,0009,Weather View 32 v70,2013-07-17 09:35:00,
2013-07-17 05:40:00,72.7,68.3,30.12,North,350,1.0,2.0,86,0.00,,,0.00,0013,Weather View 32 v70,2013-07-17 09:40:00,
2013-07-17 05:45:00,72.8,68.3,30.13,North,4,1.0,2.0,86,0.00,,,0.00,0019,Weather View 32 v70,2013-07-17 09:45:00,
2013-07-17 05:50:00,72.8,68.3,30.13,North,7,1.0,2.0,86,0.00,,,0.00,0026,Weather View 32 v70,2013-07-17 09:50:00,
2013-07-17 05:55:00,72.9,68.4,30.13,NNE,12,1.0,2.0,86,0.00,,,0.00,0034,Weather View 32 v70,2013-07-17 09:55:00,
2013-07-17 06:00:00,73.1,69.0,30.13,North,7,1.0,2.0,87,0.00,,,0.00,0042,Weather View 32 v70,2013-07-17 10:00:00,
2013-07-17 06:05:00,73.3,69.2,30.13,North,8,0.0,2.0,87,0.00,,,0.00,0051,Weather View 32 v70,2013-07-17 10:05:00,
2013-07-17 06:10:00,73.6,69.5,30.13,North,8,0.0,2.0,87,0.00,,,0.00,0055,Weather View 32 v70,2013-07-17 10:10:00,
2013-07-17 06:15:00,73.9,69.8,30.13,North,8,0.0,2.0,87,0.00,,,0.00,0057,Weather View 32 v70,2013-07-17 10:15:00,
2013-07-17 06:20:00,74.2,70.1,30.13,North,8,0.0,2.0,87,0.00,,,0.00,0061,Weather View 32 v70,2013-07-17 10:20:00,
2013-07-17 06:25:00,74.7,70.6,30.13,North,8,0.0,2.0,87,0.00,,,0.00,0136,Weather View 32 v70,2013-07-17 10:25:00,
2013-07-17 06:30:00,75.0,70.8,30.13,North,8,0.0,2.0,87,0.00,,,0.00,0144,Weather View 32 v70,2013-07-17 10:30:00,
2013-07-17 06:35:00,75.5,71.3,30.13,North,8,1.0,2.0,87,0.00,,,0.00,0159,Weather View 32 v70,2013-07-17 10:35:00,
2013-07-17 06:40:00,75.9,71.7,30.13,North,8,0.0,2.0,87,0.00,,,0.00,0160,Weather View 32 v70,2013-07-17 10:40:00,
2013-07-17 06:45:00,76.3,72.1,30.13,North,8,0.0,2.0,87,0.00,,,0.00,0095,Weather View 32 v70,2013-07-17 10:45:00,
2013-07-17 06:50:00,76.5,72.0,30.13,North,8,0.0,2.0,86,0.00,,,0.00,0058,Weather View 32 v70,2013-07-17 10:50:00,
2013-07-17 06:55:00,76.7,72.2,30.13,North,9,1.0,2.0,86,0.00,,,0.00,0138,Weather View 32 v70,2013-07-17 10:55:00,
2013-07-17 07:00:00,76.9,72.0,30.13,North,9,0.0,2.0,85,0.00,,,0.00,0210,Weather View 32 v70,2013-07-17 11:00:00,
2013-07-17 07:05:00,77.1,72.2,30.13,North,11,0.0,2.0,85,0.00,,,0.00,0221,Weather View 32 v70,2013-07-17 11:05:00,
2013-07-17 07:10:00,77.4,72.5,30.13,WSW,248,2.0,2.0,85,0.00,,,0.00,0232,Weather View 32 v70,2013-07-17 11:10:00,
2013-07-17 07:15:00,77.6,72.4,30.13,SW,219,0.0,2.0,84,0.00,,,0.00,0200,Weather View 32 v70,2013-07-17 11:15:00,
2013-07-17 07:20:00,77.8,71.8,30.13,SW,224,0.0,2.0,82,0.00,,,0.00,0236,Weather View 32 v70,2013-07-17 11:20:00,
2013-07-17 07:25:00,78.0,71.7,30.13,WSW,254,0.0,2.0,81,0.00,,,0.00,0250,Weather View 32 v70,2013-07-17 11:25:00,
2013-07-17 07:30:00,77.8,71.1,30.13,ENE,58,1.0,2.0,80,0.00,,,0.00,0090,Weather View 32 v70,2013-07-17 11:30:00,
2013-07-17 07:36:00,78.2,71.5,30.13,West,275,1.0,2.0,80,0.00,,,0.00,0269,Weather View 32 v70,2013-07-17 11:36:00,
2013-07-17 07:41:00,78.6,72.3,30.13,East,87,2.0,2.0,81,0.00,,,0.00,0281,Weather View 32 v70,2013-07-17 11:41:00,
2013-07-17 07:46:00,78.9,72.2,30.13,East,86,1.0,2.0,80,0.00,,,0.00,0287,Weather View 32 v70,2013-07-17 11:46:00,
2013-07-17 07:51:00,79.3,72.6,30.13,ESE,111,1.0,2.0,80,0.00,,,0.00,0296,Weather View 32 v70,2013-07-17 11:51:00,
2013-07-17 07:56:00,79.8,72.7,30.13,ESE,106,0.0,3.0,79,0.00,,,0.00,0311,Weather View 32 v70,2013-07-17 11:56:00,
2013-07-17 08:01:00,80.3,73.2,30.13,SE,134,0.0,3.0,79,0.00,,,0.00,0322,Weather View 32 v70,2013-07-17 12:01:00,
2013-07-17 08:06:00,80.3,72.0,30.13,NE,35,1.0,3.0,76,0.00,,,0.00,0332,Weather View 32 v70,2013-07-17 12:06:00,
2013-07-17 08:11:00,80.9,73.0,30.13,East,90,0.0,3.0,77,0.00,,,0.00,0340,Weather View 32 v70,2013-07-17 12:11:00,
2013-07-17 08:16:00,81.3,73.4,30.13,South,178,2.0,3.0,77,0.00,,,0.00,0352,Weather View 32 v70,2013-07-17 12:16:00,
2013-07-17 08:21:00,81.8,73.5,30.13,SE,140,1.0,3.0,76,0.00,,,0.00,0362,Weather View 32 v70,2013-07-17 12:21:00,
2013-07-17 08:26:00,82.2,73.4,30.13,SE,133,1.0,3.0,75,0.00,,,0.00,0368,Weather View 32 v70,2013-07-17 12:26:00,
2013-07-17 08:31:00,82.5,73.3,30.13,SSW,199,2.0,3.0,74,0.00,,,0.00,0378,Weather View 32 v70,2013-07-17 12:31:00,
2013-07-17 08:36:00,82.9,73.3,30.13,South,181,1.0,4.0,73,0.00,,,0.00,0388,Weather View 32 v70,2013-07-17 12:36:00,
2013-07-17 08:41:00,83.3,73.3,30.13,SSW,199,1.0,4.0,72,0.00,,,0.00,0394,Weather View 32 v70,2013-07-17 12:41:00,
2013-07-17 08:46:00,83.6,73.2,30.13,SSW,204,2.0,4.0,71,0.00,,,0.00,0403,Weather View 32 v70,2013-07-17 12:46:00,
2013-07-17 08:51:00,84.0,73.1,30.13,SW,222,1.0,4.0,70,0.00,,,0.00,0413,Weather View 32 v70,2013-07-17 12:51:00,
2013-07-17 08:56:00,84.5,73.6,30.14,SSW,196,1.0,4.0,70,0.00,,,0.00,0419,Weather View 32 v70,2013-07-17 12:56:00,
2013-07-17 09:01:00,84.8,73.0,30.13,ESE,120,1.0,4.0,68,0.00,,,0.00,0426,Weather View 32 v70,2013-07-17 13:01:00,
2013-07-17 09:06:00,84.8,73.0,30.14,East,89,2.0,4.0,68,0.00,,,0.00,0434,Weather View 32 v70,2013-07-17 13:06:00,
2013-07-17 09:11:00,84.9,72.7,30.13,SE,126,2.0,4.0,67,0.00,,,0.00,0443,Weather View 32 v70,2013-07-17 13:11:00,
2013-07-17 09:16:00,85.2,72.5,30.13,SE,139,1.0,4.0,66,0.00,,,0.00,0448,Weather View 32 v70,2013-07-17 13:16:00,
2013-07-17 09:21:00,85.4,72.7,30.13,SSE,148,1.0,4.0,66,0.00,,,0.00,0457,Weather View 32 v70,2013-07-17 13:21:00,
2013-07-17 09:26:00,85.7,73.4,30.13,West,278,3.0,5.0,67,0.00,,,0.00,0462,Weather View 32 v70,2013-07-17 13:26:00,
2013-07-17 09:31:00,85.5,71.9,30.13,NNE,25,2.0,5.0,64,0.00,,,0.00,0465,Weather View 32 v70,2013-07-17 13:31:00,
2013-07-17 09:36:00,85.6,72.4,30.13,SW,217,1.0,5.0,65,0.00,,,0.00,0467,Weather View 32 v70,2013-07-17 13:36:00,
2013-07-17 09:41:00,86.2,73.5,30.13,SSW,196,1.0,5.0,66,0.00,,,0.00,0468,Weather View 32 v70,2013-07-17 13:41:00,
2013-07-17 09:46:00,86.6,73.4,30.13,SW,234,2.0,5.0,65,0.00,,,0.00,0483,Weather View 32 v70,2013-07-17 13:46:00,
2013-07-17 09:51:00,87.0,72.8,30.13,SW,219,3.0,5.0,63,0.00,,,0.00,0492,Weather View 32 v70,2013-07-17 13:51:00,
2013-07-17 09:56:00,87.5,73.3,30.13,SE,144,2.0,5.0,63,0.00,,,0.00,0495,Weather View 32 v70,2013-07-17 13:56:00,
2013-07-17 10:01:00,87.8,73.1,30.12,SW,227,1.0,5.0,62,0.00,,,0.00,0500,Weather View 32 v70,2013-07-17 14:01:00,
2013-07-17 10:06:00,88.2,73.5,30.12,South,188,2.0,5.0,62,0.00,,,0.00,0510,Weather View 32 v70,2013-07-17 14:06:00,
2013-07-17 10:11:00,88.4,72.7,30.12,SSW,192,3.0,5.0,60,0.00,,,0.00,0518,Weather View 32 v70,2013-07-17 14:11:00,
2013-07-17 10:16:00,88.7,72.5,30.12,South,185,3.0,5.0,59,0.00,,,0.00,0510,Weather View 32 v70,2013-07-17 14:16:00,
2013-07-17 10:21:00,89.0,72.7,30.12,SE,138,2.0,5.0,59,0.00,,,0.00,0525,Weather View 32 v70,2013-07-17 14:21:00,
2013-07-17 10:26:00,89.2,72.9,30.12,South,186,2.0,5.0,59,0.00,,,0.00,0535,Weather View 32 v70,2013-07-17 14:26:00,
2013-07-17 10:31:00,89.3,72.0,30.12,East,87,1.0,5.0,57,0.00,,,0.00,0532,Weather View 32 v70,2013-07-17 14:31:00,
2013-07-17 10:36:00,89.5,71.7,30.12,SE,137,1.0,5.0,56,0.00,,,0.00,0533,Weather View 32 v70,2013-07-17 14:36:00,
2013-07-17 10:41:00,89.0,70.7,30.12,North,10,3.0,7.0,55,0.00,,,0.00,0534,Weather View 32 v70,2013-07-17 14:41:00,
2013-07-17 10:46:00,88.1,70.9,30.11,East,94,3.0,7.0,57,0.00,,,0.00,0545,Weather View 32 v70,2013-07-17 14:46:00,
2013-07-17 10:51:00,88.5,71.8,30.12,NE,53,3.0,7.0,58,0.00,,,0.00,0550,Weather View 32 v70,2013-07-17 14:51:00,
2013-07-17 10:56:00,88.8,72.6,30.11,SSW,196,3.0,7.0,59,0.00,,,0.00,0571,Weather View 32 v70,2013-07-17 14:56:00,
2013-07-17 11:01:00,88.6,69.8,30.12,North,4,3.0,7.0,54,0.00,,,0.00,0427,Weather View 32 v70,2013-07-17 15:01:00,
2013-07-17 11:06:00,88.0,69.2,30.11,NNE,21,3.0,7.0,54,0.00,,,0.00,0163,Weather View 32 v70,2013-07-17 15:06:00,
2013-07-17 11:11:00,88.1,68.7,30.11,ESE,121,1.0,7.0,53,0.00,,,0.00,0592,Weather View 32 v70,2013-07-17 15:11:00,
2013-07-17 11:16:00,88.6,69.2,30.11,SSE,152,3.0,7.0,53,0.00,,,0.00,0584,Weather View 32 v70,2013-07-17 15:16:00,
2013-07-17 11:21:00,89.4,70.5,30.11,South,187,1.0,7.0,54,0.00,,,0.00,0582,Weather View 32 v70,2013-07-17 15:21:00,
2013-07-17 11:26:00,89.7,69.7,30.11,SSW,199,2.0,7.0,52,0.00,,,0.00,0558,Weather View 32 v70,2013-07-17 15:26:00,
2013-07-17 11:31:00,90.1,70.0,30.11,SE,138,4.0,7.0,52,0.00,,,0.00,0578,Weather View 32 v70,2013-07-17 15:31:00,
2013-07-17 11:36:00,90.6,69.9,30.11,NNE,28,2.0,7.0,51,0.00,,,0.00,0593,Weather View 32 v70,2013-07-17 15:36:00,
2013-07-17 11:41:00,90.5,68.6,30.11,SSE,155,2.0,7.0,49,0.00,,,0.00,0582,Weather View 32 v70,2013-07-17 15:41:00,
2013-07-17 11:46:00,90.0,68.2,30.10,NE,45,5.0,6.0,49,0.00,,,0.00,0586,Weather View 32 v70,2013-07-17 15:46:00,
2013-07-17 11:51:00,89.8,68.0,30.10,ENE,74,1.0,10.0,49,0.00,,,0.00,0573,Weather View 32 v70,2013-07-17 15:51:00,
2013-07-17 11:56:00,90.6,69.9,30.10,NW,304,1.0,10.0,51,0.00,,,0.00,0495,Weather View 32 v70,2013-07-17 15:56:00,
2013-07-17 12:01:00,90.7,68.8,30.10,ENE,70,5.0,10.0,49,0.00,,,0.00,0605,Weather View 32 v70,2013-07-17 16:01:00,
2013-07-17 12:06:00,89.7,66.7,30.09,ENE,75,3.0,10.0,47,0.00,,,0.00,0581,Weather View 32 v70,2013-07-17 16:06:00,
2013-07-17 12:11:00,91.0,69.7,30.10,South,176,1.0,10.0,50,0.00,,,0.00,0600,Weather View 32 v70,2013-07-17 16:11:00,
2013-07-17 12:16:00,91.0,69.1,30.09,ENE,66,2.0,10.0,49,0.00,,,0.00,0566,Weather View 32 v70,2013-07-17 16:16:00,
2013-07-17 12:21:00,91.5,68.3,30.09,SE,132,1.0,10.0,47,0.00,,,0.00,0569,Weather View 32 v70,2013-07-17 16:21:00,
2013-07-17 12:26:00,90.7,68.2,30.09,NE,47,5.0,10.0,48,0.00,,,0.00,0591,Weather View 32 v70,2013-07-17 16:26:00,
2013-07-17 12:31:00,90.6,66.9,30.09,SE,137,2.0,10.0,46,0.00,,,0.00,0614,Weather View 32 v70,2013-07-17 16:31:00,
2013-07-17 12:36:00,90.4,66.7,30.09,NNW,346,4.0,10.0,46,0.00,,,0.00,0600,Weather View 32 v70,2013-07-17 16:36:00,
2013-07-17 12:41:00,91.2,68.7,30.09,SSW,199,5.0,10.0,48,0.00,,,0.00,0606,Weather View 32 v70,2013-07-17 16:41:00,
2013-07-17 12:46:00,91.3,67.5,30.09,NNW,332,2.0,10.0,46,0.00,,,0.00,0564,Weather View 32 v70,2013-07-17 16:46:00,
2013-07-17 12:51:00,91.7,68.5,30.08,ESE,122,4.0,7.0,47,0.00,,,0.00,0594,Weather View 32 v70,2013-07-17 16:51:00,
2013-07-17 12:56:00,91.8,66.0,30.08,West,272,2.0,7.0,43,0.00,,,0.00,0594,Weather View 32 v70,2013-07-17 16:56:00,
2013-07-17 13:01:00,91.7,66.6,30.08,East,83,1.0,7.0,44,0.00,,,0.00,0599,Weather View 32 v70,2013-07-17 17:01:00,
2013-07-17 13:06:00,91.8,66.7,30.08,NNE,25,2.0,7.0,44,0.00,,,0.00,0590,Weather View 32 v70,2013-07-17 17:06:00,
2013-07-17 13:11:00,92.5,68.0,30.08,SE,138,2.0,7.0,45,0.00,,,0.00,0588,Weather View 32 v70,2013-07-17 17:11:00,
2013-07-17 13:16:00,93.0,69.7,30.08,South,183,3.0,7.0,47,0.00,,,0.00,0576,Weather View 32 v70,2013-07-17 17:16:00,
2013-07-17 13:21:00,91.7,65.9,30.08,NNE,22,3.0,7.0,43,0.00,,,0.00,0575,Weather View 32 v70,2013-07-17 17:21:00,
2013-07-17 13:26:00,92.4,67.9,30.07,SE,129,5.0,7.0,45,0.00,,,0.00,0576,Weather View 32 v70,2013-07-17 17:26:00,
2013-07-17 13:31:00,92.1,66.3,30.07,WSW,239,2.0,6.0,43,0.00,,,0.00,0575,Weather View 32 v70,2013-07-17 17:31:00,
2013-07-17 13:36:00,92.6,68.1,30.07,North,354,4.0,6.0,45,0.00,,,0.00,0577,Weather View 32 v70,2013-07-17 17:36:00,
2013-07-17 13:41:00,92.3,65.8,30.07,NNW,337,4.0,6.0,42,0.00,,,0.00,0568,Weather View 32 v70,2013-07-17 17:41:00,
2013-07-17 13:46:00,92.8,67.6,30.07,North,11,1.0,6.0,44,0.00,,,0.00,0567,Weather View 32 v70,2013-07-17 17:46:00,
2013-07-17 13:51:00,92.3,65.8,30.07,East,92,5.0,6.0,42,0.00,,,0.00,0565,Weather View 32 v70,2013-07-17 17:51:00,
2013-07-17 13:56:00,93.1,68.5,30.07,ESE,108,5.0,7.0,45,0.00,,,0.00,0562,Weather View 32 v70,2013-07-17 17:56:00,
2013-07-17 14:01:00,93.2,68.6,30.07,SE,144,3.0,7.0,45,0.00,,,0.00,0558,Weather View 32 v70,2013-07-17 18:01:00,
2013-07-17 14:07:00,92.8,66.2,30.06,South,189,1.0,7.0,42,0.00,,,0.00,0554,Weather View 32 v70,2013-07-17 18:07:00,
2013-07-17 14:12:00,93.5,69.5,30.06,SSW,195,5.0,7.0,46,0.00,,,0.00,0557,Weather View 32 v70,2013-07-17 18:12:00,
2013-07-17 14:17:00,93.4,68.1,30.06,South,177,1.0,7.0,44,0.00,,,0.00,0549,Weather View 32 v70,2013-07-17 18:17:00,
2013-07-17 14:22:00,93.6,67.6,30.06,SSE,154,3.0,7.0,43,0.00,,,0.00,0541,Weather View 32 v70,2013-07-17 18:22:00,
2013-07-17 14:27:00,93.9,67.9,30.06,SSW,210,2.0,7.0,43,0.00,,,0.00,0536,Weather View 32 v70,2013-07-17 18:27:00,
2013-07-17 14:32:00,94.3,67.6,30.06,SE,139,2.0,7.0,42,0.00,,,0.00,0531,Weather View 32 v70,2013-07-17 18:32:00,
2013-07-17 14:37:00,93.7,66.3,30.06,ESE,123,2.0,7.0,41,0.00,,,0.00,0527,Weather View 32 v70,2013-07-17 18:37:00,
2013-07-17 14:42:00,93.4,65.4,30.05,North,8,2.0,7.0,40,0.00,,,0.00,0518,Weather View 32 v70,2013-07-17 18:42:00,
2013-07-17 14:47:00,92.8,66.2,30.05,NW,322,1.0,7.0,42,0.00,,,0.00,0508,Weather View 32 v70,2013-07-17 18:47:00,
2013-07-17 14:52:00,92.8,65.5,30.05,North,10,2.0,8.0,41,0.00,,,0.00,0507,Weather View 32 v70,2013-07-17 18:52:00,
2013-07-17 14:57:00,92.8,65.5,30.05,SSE,147,2.0,8.0,41,0.00,,,0.00,0500,Weather View 32 v70,2013-07-17 18:57:00,
2013-07-17 15:02:00,92.8,67.6,30.04,SW,217,3.0,8.0,44,0.00,,,0.00,0493,Weather View 32 v70,2013-07-17 19:02:00,
2013-07-17 15:07:00,92.9,67.7,30.04,WSW,249,1.0,8.0,44,0.00,,,0.00,0486,Weather View 32 v70,2013-07-17 19:07:00,
2013-07-17 15:12:00,92.9,65.6,30.04,NNE,24,2.0,8.0,41,0.00,,,0.00,0488,Weather View 32 v70,2013-07-17 19:12:00,
2013-07-17 15:17:00,93.0,65.7,30.04,NE,40,4.0,8.0,41,0.00,,,0.00,0482,Weather View 32 v70,2013-07-17 19:17:00,
2013-07-17 15:22:00,92.6,66.7,30.04,NNW,346,2.0,8.0,43,0.00,,,0.00,0476,Weather View 32 v70,2013-07-17 19:22:00,
2013-07-17 15:27:00,92.5,64.6,30.03,NNE,29,3.0,8.0,40,0.00,,,0.00,0463,Weather View 32 v70,2013-07-17 19:27:00,
2013-07-17 15:32:00,92.8,66.2,30.03,SE,140,1.0,8.0,42,0.00,,,0.00,0453,Weather View 32 v70,2013-07-17 19:32:00,
2013-07-17 15:37:00,92.0,67.5,30.03,NNW,345,2.0,8.0,45,0.00,,,0.00,0445,Weather View 32 v70,2013-07-17 19:37:00,
2013-07-17 15:42:00,92.8,67.6,30.02,SW,220,5.0,8.0,44,0.00,,,0.00,0441,Weather View 32 v70,2013-07-17 19:42:00,
2013-07-17 15:47:00,92.5,65.3,30.02,North,9,4.0,8.0,41,0.00,,,0.00,0432,Weather View 32 v70,2013-07-17 19:47:00,
2013-07-17 15:52:00,92.6,66.7,30.02,WSW,241,2.0,7.0,43,0.00,,,0.00,0420,Weather View 32 v70,2013-07-17 19:52:00,
2013-07-17 15:57:00,92.5,66.6,30.01,NE,43,2.0,7.0,43,0.00,,,0.00,0410,Weather View 32 v70,2013-07-17 19:57:00,
2013-07-17 16:02:00,92.6,67.4,30.01,ESE,110,2.0,7.0,44,0.00,,,0.00,0410,Weather View 32 v70,2013-07-17 20:02:00,
2013-07-17 16:07:00,92.3,67.8,30.01,NNW,331,1.0,7.0,45,0.00,,,0.00,0396,Weather View 32 v70,2013-07-17 20:07:00,
2013-07-17 16:12:00,92.4,65.9,30.01,NNE,32,4.0,7.0,42,0.00,,,0.00,0380,Weather View 32 v70,2013-07-17 20:12:00,
2013-07-17 16:17:00,91.8,64.6,30.01,NW,322,2.0,7.0,41,0.00,,,0.00,0367,Weather View 32 v70,2013-07-17 20:17:00,
2013-07-17 16:22:00,91.4,66.3,30.00,WNW,295,1.0,7.0,44,0.00,,,0.00,0365,Weather View 32 v70,2013-07-17 20:22:00,
2013-07-17 16:27:00,91.4,68.2,30.00,ENE,76,1.0,7.0,47,0.00,,,0.00,0358,Weather View 32 v70,2013-07-17 20:27:00,
2013-07-17 16:32:00,91.4,67.0,30.00,NE,41,3.0,7.0,45,0.00,,,0.00,0351,Weather View 32 v70,2013-07-17 20:32:00,
2013-07-17 16:37:00,91.1,68.0,30.00,SW,214,2.0,7.0,47,0.00,,,0.00,0339,Weather View 32 v70,2013-07-17 20:37:00,
2013-07-17 16:43:00,91.0,68.5,30.00,SSE,156,2.0,7.0,48,0.00,,,0.00,0327,Weather View 32 v70,2013-07-17 20:43:00,
2013-07-17 16:48:00,90.9,67.8,29.99,South,189,1.0,7.0,47,0.00,,,0.00,0300,Weather View 32 v70,2013-07-17 20:48:00,
2013-07-17 16:53:00,90.9,68.4,29.99,SE,127,2.0,7.0,48,0.00,,,0.00,0218,Weather View 32 v70,2013-07-17 20:53:00,
2013-07-17 16:58:00,90.2,68.4,29.99,WSW,256,1.0,7.0,49,0.00,,,0.00,0073,Weather View 32 v70,2013-07-17 20:58:00,
2013-07-17 17:03:00,89.6,69.0,29.99,West,269,1.0,7.0,51,0.00,,,0.00,0103,Weather View 32 v70,2013-07-17 21:03:00,
2013-07-17 17:08:00,89.9,68.1,29.99,ESE,104,2.0,7.0,49,0.00,,,0.00,0063,Weather View 32 v70,2013-07-17 21:08:00,
2013-07-17 17:13:00,90.1,67.7,29.99,ENE,67,3.0,7.0,48,0.00,,,0.00,0065,Weather View 32 v70,2013-07-17 21:13:00,
2013-07-17 17:18:00,90.1,68.3,29.99,West,264,2.0,7.0,49,0.00,,,0.00,0070,Weather View 32 v70,2013-07-17 21:18:00,
2013-07-17 17:23:00,90.5,68.0,29.99,SSE,155,2.0,7.0,48,0.00,,,0.00,0077,Weather View 32 v70,2013-07-17 21:23:00,
2013-07-17 17:28:00,90.7,68.2,29.99,SW,230,2.0,7.0,48,0.00,,,0.00,0076,Weather View 32 v70,2013-07-17 21:28:00,
2013-07-17 17:33:00,90.5,68.6,29.99,NNE,27,6.0,7.0,49,0.00,,,0.00,0075,Weather View 32 v70,2013-07-17 21:33:00,
2013-07-17 17:38:00,90.6,68.7,29.99,East,96,2.0,7.0,49,0.00,,,0.00,0064,Weather View 32 v70,2013-07-17 21:38:00,
2013-07-17 17:43:00,90.7,68.8,29.98,WSW,249,2.0,7.0,49,0.00,,,0.00,0057,Weather View 32 v70,2013-07-17 21:43:00,
2013-07-17 17:48:00,90.4,68.6,29.98,ESE,122,3.0,7.0,49,0.00,,,0.00,0059,Weather View 32 v70,2013-07-17 21:48:00,
2013-07-17 17:53:00,90.0,69.4,29.98,SE,131,2.0,7.0,51,0.00,,,0.00,0055,Weather View 32 v70,2013-07-17 21:53:00,
2013-07-17 17:58:00,89.3,69.3,29.98,North,356,2.0,7.0,52,0.00,,,0.00,0056,Weather View 32 v70,2013-07-17 21:58:00,
2013-07-17 18:03:00,89.1,69.1,29.98,ESE,108,1.0,7.0,52,0.00,,,0.00,0050,Weather View 32 v70,2013-07-17 22:03:00,
2013-07-17 18:08:00,88.9,68.9,29.98,ENE,69,3.0,7.0,52,0.00,,,0.00,0047,Weather View 32 v70,2013-07-17 22:08:00,
2013-07-17 18:13:00,88.8,68.8,29.97,NW,304,2.0,7.0,52,0.00,,,0.00,0045,Weather View 32 v70,2013-07-17 22:13:00,
2013-07-17 18:18:00,88.4,69.0,29.97,SE,140,2.0,7.0,53,0.00,,,0.00,0043,Weather View 32 v70,2013-07-17 22:18:00,
2013-07-17 18:23:00,88.7,69.3,29.97,SE,144,2.0,8.0,53,0.00,,,0.00,0041,Weather View 32 v70,2013-07-17 22:23:00,
2013-07-17 18:28:00,88.5,69.1,29.96,South,187,2.0,8.0,53,0.00,,,0.00,0038,Weather View 32 v70,2013-07-17 22:28:00,
2013-07-17 18:33:00,88.2,69.9,29.96,SSE,156,2.0,8.0,55,0.00,,,0.00,0036,Weather View 32 v70,2013-07-17 22:33:00,
2013-07-17 18:38:00,88.3,70.5,29.96,ESE,116,3.0,8.0,56,0.00,,,0.00,0034,Weather View 32 v70,2013-07-17 22:38:00,
2013-07-17 18:43:00,88.3,71.1,29.96,SSE,157,2.0,9.0,57,0.00,,,0.00,0032,Weather View 32 v70,2013-07-17 22:43:00,
2013-07-17 18:48:00,88.3,71.6,29.96,SSW,196,1.0,9.0,58,0.00,,,0.00,0031,Weather View 32 v70,2013-07-17 22:48:00,
2013-07-17 18:53:00,88.3,71.1,29.96,South,185,3.0,9.0,57,0.00,,,0.00,0029,Weather View 32 v70,2013-07-17 22:53:00,
2013-07-17 18:58:00,88.1,70.9,29.96,SW,219,3.0,9.0,57,0.00,,,0.00,0027,Weather View 32 v70,2013-07-17 22:58:00,
2013-07-17 19:03:00,88.0,71.3,29.96,SSW,208,7.0,9.0,58,0.00,,,0.00,0026,Weather View 32 v70,2013-07-17 23:03:00,
2013-07-17 19:08:00,87.6,71.4,29.96,SW,217,2.0,9.0,59,0.00,,,0.00,0025,Weather View 32 v70,2013-07-17 23:08:00,
2013-07-17 19:14:00,87.4,71.2,29.96,SW,215,2.0,9.0,59,0.00,,,0.00,0024,Weather View 32 v70,2013-07-17 23:14:00,
2013-07-17 19:19:00,87.0,71.4,29.96,SSE,153,3.0,9.0,60,0.00,,,0.00,0022,Weather View 32 v70,2013-07-17 23:19:00,
2013-07-17 19:24:00,86.9,71.8,29.96,SE,143,2.0,9.0,61,0.00,,,0.00,0020,Weather View 32 v70,2013-07-17 23:24:00,
2013-07-17 19:29:00,86.7,71.6,29.97,SSW,212,2.0,9.0,61,0.00,,,0.00,0016,Weather View 32 v70,2013-07-17 23:29:00,
2013-07-17 19:34:00,86.3,71.7,29.97,SSW,203,3.0,11.0,62,0.00,,,0.00,0011,Weather View 32 v70,2013-07-17 23:34:00,
2013-07-17 19:39:00,86.2,71.6,29.97,SW,228,2.0,11.0,62,0.00,,,0.00,0009,Weather View 32 v70,2013-07-17 23:39:00,
2013-07-17 19:44:00,85.9,71.8,29.97,SSW,206,4.0,11.0,63,0.00,,,0.00,0006,Weather View 32 v70,2013-07-17 23:44:00,
2013-07-17 19:49:00,85.6,71.5,29.97,SE,146,2.0,11.0,63,0.00,,,0.00,0005,Weather View 32 v70,2013-07-17 23:49:00,
2013-07-17 19:54:00,85.5,71.9,29.98,SSE,150,2.0,11.0,64,0.00,,,0.00,0005,Weather View 32 v70,2013-07-17 23:54:00,
2013-07-17 19:59:00,85.3,71.7,29.98,NE,55,4.0,11.0,64,0.00,,,0.00,0004,Weather View 32 v70,2013-07-17 23:59:00,
2013-07-17 20:04:00,85.1,72.0,29.98,ESE,103,2.0,11.0,65,0.00,,,0.00,0004,Weather View 32 v70,2013-07-18 00:04:00,
2013-07-17 20:09:00,85.0,71.9,29.98,West,260,2.0,11.0,65,0.00,,,0.00,0004,Weather View 32 v70,2013-07-18 00:09:00,
2013-07-17 20:14:00,84.8,71.7,29.98,SSW,204,2.0,11.0,65,0.00,,,0.00,0003,Weather View 32 v70,2013-07-18 00:14:00,
2013-07-17 20:19:00,84.5,71.8,29.98,SSE,156,3.0,11.0,66,0.00,,,0.00,0003,Weather View 32 v70,2013-07-18 00:19:00,
2013-07-17 20:24:00,84.4,71.7,29.98,SSW,197,2.0,11.0,66,0.00,,,0.00,0002,Weather View 32 v70,2013-07-18 00:24:00,
2013-07-17 20:29:00,84.2,72.0,29.98,South,176,3.0,11.0,67,0.00,,,0.00,0002,Weather View 32 v70,2013-07-18 00:29:00,
2013-07-17 20:34:00,84.0,71.8,29.97,SSE,154,2.0,9.0,67,0.00,,,0.00,0002,Weather View 32 v70,2013-07-18 00:34:00,
2013-07-17 20:39:00,83.8,72.1,29.98,SSW,197,2.0,14.0,68,0.00,,,0.00,0002,Weather View 32 v70,2013-07-18 00:39:00,
2013-07-17 20:44:00,83.7,72.0,29.98,SE,137,2.0,14.0,68,0.00,,,0.00,0002,Weather View 32 v70,2013-07-18 00:44:00,
2013-07-17 20:49:00,83.6,72.3,29.98,East,95,2.0,14.0,69,0.00,,,0.00,0002,Weather View 32 v70,2013-07-18 00:49:00,
2013-07-17 20:54:00,83.4,72.1,29.98,ENE,57,2.0,14.0,69,0.00,,,0.00,0002,Weather View 32 v70,2013-07-18 00:54:00,
2013-07-17 20:59:00,83.3,72.4,29.98,SW,216,2.0,14.0,70,0.00,,,0.00,0002,Weather View 32 v70,2013-07-18 00:59:00,
2013-07-17 21:04:00,83.1,72.3,29.98,SSE,147,3.0,14.0,70,0.00,,,0.00,0002,Weather View 32 v70,2013-07-18 01:04:00,
2013-07-17 21:09:00,82.9,72.1,29.98,SE,139,2.0,14.0,70,0.00,,,0.00,0002,Weather View 32 v70,2013-07-18 01:09:00,
2013-07-17 21:14:00,82.9,72.5,29.98,ESE,123,3.0,14.0,71,0.00,,,0.00,0002,Weather View 32 v70,2013-07-18 01:14:00,
2013-07-17 21:19:00,82.7,72.3,29.97,SSE,152,3.0,14.0,71,0.00,,,0.00,0002,Weather View 32 v70,2013-07-18 01:19:00,
2013-07-17 21:24:00,82.6,72.6,29.98,ESE,123,2.0,14.0,72,0.00,,,0.00,0002,Weather View 32 v70,2013-07-18 01:24:00,
2013-07-17 21:29:00,82.4,72.8,29.98,SW,227,3.0,14.0,73,0.00,,,0.00,0002,Weather View 32 v70,2013-07-18 01:29:00,
2013-07-17 21:34:00,82.4,72.8,29.98,South,191,1.0,14.0,73,0.00,,,0.00,0002,Weather View 32 v70,2013-07-18 01:34:00,
2013-07-17 21:39:00,82.4,72.8,29.98,SSE,153,3.0,11.0,73,0.00,,,0.00,0002,Weather View 32 v70,2013-07-18 01:39:00,
2013-07-17 21:44:00,82.3,72.7,29.98,South,191,5.0,11.0,73,0.00,,,0.00,0002,Weather View 32 v70,2013-07-18 01:44:00,
2013-07-17 21:49:00,82.2,73.0,29.98,SE,134,3.0,11.0,74,0.00,,,0.00,0002,Weather View 32 v70,2013-07-18 01:49:00,
2013-07-17 21:54:00,82.1,72.9,29.98,SSW,194,2.0,11.0,74,0.00,,,0.00,0002,Weather View 32 v70,2013-07-18 01:54:00,
2013-07-17 21:59:00,82.1,72.9,29.98,South,179,3.0,11.0,74,0.00,,,0.00,0002,Weather View 32 v70,2013-07-18 01:59:00,
2013-07-17 22:05:00,82.1,72.9,29.99,SSW,209,1.0,11.0,74,0.00,,,0.00,0002,Weather View 32 v70,2013-07-18 02:05:00,
2013-07-17 22:10:00,81.9,72.8,29.99,SE,143,2.0,11.0,74,0.00,,,0.00,0002,Weather View 32 v70,2013-07-18 02:10:00,
2013-07-17 22:15:00,81.7,72.6,29.99,SSE,150,1.0,11.0,74,0.00,,,0.00,0002,Weather View 32 v70,2013-07-18 02:15:00,
2013-07-17 22:20:00,81.7,72.6,29.99,ESE,117,3.0,11.0,74,0.00,,,0.00,0002,Weather View 32 v70,2013-07-18 02:20:00,
2013-07-17 22:25:00,81.6,72.5,29.99,SW,220,3.0,11.0,74,0.00,,,0.00,0002,Weather View 32 v70,2013-07-18 02:25:00,
2013-07-17 22:30:00,81.4,72.3,29.99,South,178,3.0,10.0,74,0.00,,,0.00,0002,Weather View 32 v70,2013-07-18 02:30:00,
2013-07-17 22:35:00,81.4,72.7,29.99,SE,127,3.0,10.0,75,0.00,,,0.00,0002,Weather View 32 v70,2013-07-18 02:35:00,
2013-07-17 22:40:00,81.3,72.6,29.99,SE,144,2.0,10.0,75,0.00,,,0.00,0002,Weather View 32 v70,2013-07-18 02:40:00,
2013-07-17 22:45:00,81.1,72.4,29.99,SSW,195,2.0,10.0,75,0.00,,,0.00,0002,Weather View 32 v70,2013-07-18 02:45:00,
2013-07-17 22:50:00,81.1,72.4,29.98,ESE,109,2.0,8.0,75,0.00,,,0.00,0002,Weather View 32 v70,2013-07-18 02:50:00,
2013-07-17 22:55:00,81.0,72.3,29.98,WSW,250,1.0,8.0,75,0.00,,,0.00,0002,Weather View 32 v70,2013-07-18 02:55:00,
2013-07-17 23:00:00,80.9,72.2,29.98,ESE,112,2.0,8.0,75,0.00,,,0.00,0002,Weather View 32 v70,2013-07-18 03:00:00,
2013-07-17 23:05:00,80.8,72.1,29.97,South,176,1.0,8.0,75,0.00,,,0.00,0002,Weather View 32 v70,2013-07-18 03:05:00,
2013-07-17 23:10:00,80.6,71.9,29.97,SSE,152,2.0,8.0,75,0.00,,,0.00,0002,Weather View 32 v70,2013-07-18 03:10:00,
2013-07-17 23:15:00,80.5,71.8,29.97,SE,130,2.0,8.0,75,0.00,,,0.00,0002,Weather View 32 v70,2013-07-18 03:15:00,
2013-07-17 23:20:00,80.4,72.1,29.97,North,11,1.0,9.0,76,0.00,,,0.00,0002,Weather View 32 v70,2013-07-18 03:20:00,
2013-07-17 23:25:00,80.4,72.1,29.96,East,100,3.0,9.0,76,0.00,,,0.00,0002,Weather View 32 v70,2013-07-18 03:25:00,
2013-07-17 23:30:00,80.2,71.9,29.96,ESE,114,2.0,9.0,76,0.00,,,0.00,0002,Weather View 32 v70,2013-07-18 03:30:00,
2013-07-17 23:35:00,80.1,71.8,29.96,East,87,2.0,9.0,76,0.00,,,0.00,0002,Weather View 32 v70,2013-07-18 03:35:00,
2013-07-17 23:40:00,80.0,71.7,29.95,SW,227,4.0,9.0,76,0.00,,,0.00,0002,Weather View 32 v70,2013-07-18 03:40:00,
2013-07-17 23:45:00,79.9,71.6,29.95,SSW,193,1.0,9.0,76,0.00,,,0.00,0002,Weather View 32 v70,2013-07-18 03:45:00,
2013-07-17 23:50:00,79.8,71.9,29.95,SE,125,4.0,9.0,77,0.00,,,0.00,0002,Weather View 32 v70,2013-07-18 03:50:00,
2013-07-17 23:55:00,79.5,71.6,29.95,South,176,4.0,9.0,77,0.00,,,0.00,0002,Weather View 32 v70,2013-07-18 03:55:00,